[[{"header":{"parameterUnit":"m.s-1","parameterCategory":1,"la1":30.2991,"la2":30.254,"lo1":-89.0895,"lo2":-89.0444,"dy":0.0017,"dx":0.0017,"nx":28,"ny":28,"refTime":"2025-07-13T21:00:00:Z","depth":0,"parameterNumber":2,"parameterNumberName":"U-component_of_WINDS"},"data":[0,0,0,0,0,0,0,0,0,0,0,0,0,0,0,0,0,0,0,0,0,0,0,0,0,0,0,0,0,0,0,0,0,0,0,0,0,0,0,0,0,0,0,0,0,0,0,0,0,0,0,0,0,0,0,0,0,0,1.6602,1.6602,0,1.6589,1.6588,1.6588,1.6534,1.6533,1.6531,1.653,1.6517,1.6517,1.6518,0,0,0,0,0,0,0,0,0,0,0,0,0,1.6583,1.6583,1.6602,1.6602,1.6602,1.6589,1.6588,1.6588,1.6534,1.6532,1.6531,1.653,1.6516,1.6517,1.6518,0,0,0,0,0,0,0,0,0,0,0,0,0,1.6583,1.6584,1.6602,1.6573,1.657,1.6589,1.6588,1.6588,1.6534,1.6532,1.6531,1.6529,1.6516,1.6517,1.6518,1.6564,0,0,1.6522,1.6523,0,0,0,0,0,0,0,0,1.6583,1.6583,1.6577,1.6575,1.6572,1.6561,1.6577,1.658,1.6535,1.6548,1.653,1.6528,1.6533,1.6533,1.6534,1.6563,1.6562,1.6522,1.6523,1.6524,1.6524,0,0,0,0,0,0,0,1.6583,1.6584,1.6597,1.6578,1.6574,1.6561,1.6559,1.6577,1.6551,1.6547,1.6543,1.6542,1.6531,1.6533,1.6534,1.6562,1.6522,1.6523,1.6524,1.6525,1.663,1.6632,0,0,0,0,0,0,1.6587,1.6584,1.6597,1.6596,1.6573,1.6563,1.6561,1.6566,1.6551,1.6547,1.6544,1.6539,1.6532,1.6532,1.6533,1.6587,1.6524,1.6525,1.6525,1.6628,1.6631,1.6633,0,0,0,0,0,0,1.6586,1.6588,1.6598,1.6589,1.6589,1.6566,1.6572,1.6567,1.6569,1.6548,1.6544,1.655,1.6531,1.6531,1.6557,1.6585,1.6525,1.6526,1.6626,1.6629,1.6632,1.6693,0,0,0,0,0,0,1.6586,1.6589,1.6605,1.659,1.659,1.6622,1.6574,1.6568,1.6571,1.6566,1.6554,1.655,1.6529,1.6556,1.6558,1.6586,1.6527,1.6623,1.6627,1.6631,1.6689,1.6698,1.6706,0,0,0,0,0,1.6586,1.6622,1.6606,1.6608,1.661,1.6623,1.6623,1.6599,1.6574,1.6591,1.6578,1.655,1.6582,1.6559,1.6561,1.659,1.6621,1.6626,1.6631,1.6685,1.6696,1.6706,0,0,0,0,0,0,1.6641,1.662,1.6601,1.6634,1.6631,1.6614,1.6634,1.6612,1.6615,1.661,1.658,1.6577,1.6608,1.6601,1.6576,1.6634,1.6597,1.6602,1.6637,1.6648,1.6657,1.6658,1.6528,0,0,0,0,0,1.6657,1.6669,1.665,1.6681,1.668,1.6658,1.6663,1.6644,1.664,1.6638,1.6627,1.6624,1.6634,1.664,1.6648,1.6688,1.6685,1.6709,1.6717,1.6725,1.673,1.6753,1.6764,1.6648,1.6648,1.6648,0,0,1.669,1.668,1.6689,1.6692,1.6687,1.6702,1.6657,1.6673,1.6684,1.6641,1.6665,1.6657,1.6652,1.6686,1.67,1.6681,1.6762,1.6731,1.6737,1.6738,1.6759,1.677,1.678,1.6651,1.6651,1.665,0,0,1.6758,1.6751,1.6777,1.6774,1.6768,1.6753,1.6759,1.6746,1.674,1.6763,1.6732,1.6744,1.6761,1.6759,1.676,1.6831,1.6806,1.6834,1.688,1.6903,1.6912,1.692,1.6947,1.6956,1.6839,1.6839,1.6839,0,1.68,1.682,1.6793,1.6813,1.6816,1.6777,1.6804,1.6802,1.6799,1.6803,1.6781,1.6803,1.6796,1.683,1.6848,1.6849,1.6857,1.6835,1.6913,1.692,1.6927,1.6953,1.6963,1.6843,1.6842,1.6842,1.6842,0,1.6873,1.6888,1.6909,1.6908,1.6913,1.6936,1.6914,1.6923,1.6905,1.6893,1.6919,1.691,1.6916,1.6923,1.6904,1.6955,1.6943,1.6918,1.688,1.6942,1.6966,1.6975,1.6848,1.6846,1.6845,1.6845,0,0,1.6974,1.696,1.6968,1.6968,1.696,1.6971,1.6993,1.6999,1.7008,1.7008,1.7027,1.7043,1.702,1.7021,1.7003,1.7023,1.7082,1.6995,1.6994,1.7013,1.7139,1.7159,1.7171,1.7065,1.7067,1.7068,1.714,0,1.7041,1.7078,1.7055,1.7096,1.711,1.7075,1.7095,1.7093,1.7083,1.7094,1.7082,1.7095,1.7063,1.7064,1.7082,1.7071,1.7107,1.7065,1.7084,1.7085,1.7087,1.7183,1.7203,1.7272,1.7149,1.715,1.7151,0,1.7122,1.7127,1.7169,1.716,1.7165,1.7183,1.7189,1.72,1.7197,1.7188,1.7191,1.7169,1.7191,1.7154,1.7185,1.7158,1.7164,1.716,1.7162,1.7164,1.7122,1.7188,1.7292,1.7303,1.7165,1.7164,1.7163,0,1.7195,1.7211,1.7239,1.724,1.7229,1.7243,1.724,1.7235,1.7241,1.7246,1.725,1.7257,1.7261,1.7268,1.7249,1.7223,1.7284,1.7244,1.7278,1.7279,1.7293,1.7293,1.7401,1.7295,1.7295,1.7295,1.7295,0,1.7272,1.7299,1.7272,1.7289,1.732,1.7294,1.7326,1.7318,1.7315,1.7331,1.7301,1.7317,1.729,1.7304,1.7289,1.7318,1.732,1.7314,1.731,1.7318,1.7319,1.7322,1.7318,1.7298,1.7297,1.7297,1.7296,0,1.7357,1.734,1.7368,1.7357,1.7355,1.7378,1.7369,1.7385,1.7373,1.7394,1.7398,1.738,1.7395,1.7376,1.7388,1.7378,1.7419,1.7407,1.7421,1.7418,1.7454,1.7451,1.7569,1.7584,1.7468,1.7469,1.747,0,1.7408,1.7429,1.742,1.7429,1.7428,1.7442,1.7449,1.7425,1.7433,1.7433,1.745,1.7462,1.7471,1.7497,1.7485,1.7495,1.7484,1.7525,1.7485,1.7493,1.7487,1.7486,1.7489,1.7533,1.7535,1.7536,1.7537,0,1.7501,1.7492,1.7502,1.751,1.7519,1.7524,1.7527,1.7536,1.7512,1.7523,1.7538,1.7545,1.7559,1.7572,1.758,1.7576,1.7554,1.7549,1.7558,1.7567,1.7574,1.7572,1.7444,1.7547,1.7546,1.7545,1.7544,1.7544,1.7572,1.759,1.7587,1.76,1.76,1.7604,1.762,1.7611,1.7623,1.7633,1.7618,1.7638,1.7637,1.7644,1.7644,1.766,1.7642,1.7654,1.7658,1.7662,1.7668,1.7571,1.7661,1.7661,1.766,1.766,1.766,0,1.7665,1.7662,1.7674,1.768,1.7691,1.7668,1.7671,1.7682,1.77,1.77,1.771,1.7729,1.7742,1.7732,1.7744,1.7758,1.7748,1.7762,1.7762,1.7762,1.7682,1.7674,1.7771,1.7771,1.7771,1.7771,1.7771,1.7771,1.7714,1.7744,1.7735,1.7765,1.7762,1.7781,1.7785,1.7789,1.779,1.7812,1.7823,1.7817,1.7814,1.7825,1.7837,1.7834,1.7841,1.7859,1.7852,1.7778,1.7767,1.7757,1.7749,1.786,1.786,1.7931,1.7932,1.7932]},{"header":{"parameterUnit":"m.s-1","parameterCategory":1,"la1":30.2991,"la2":30.254,"lo1":-89.0895,"lo2":-89.0444,"dy":0.0017,"dx":0.0017,"nx":28,"ny":28,"refTime":"2025-07-13T21:00:00:Z","depth":0,"parameterNumber":3,"parameterNumberName":"V-component_of_WINDS"},"data":[0,0,0,0,0,0,0,0,0,0,0,0,0,0,0,0,0,0,0,0,0,0,0,0,0,0,0,0,0,0,0,0,0,0,0,0,0,0,0,0,0,0,0,0,0,0,0,0,0,0,0,0,0,0,0,0,0,0,-2.8312,-2.8312,0,-2.8373,-2.8374,-2.8375,-2.838,-2.8379,-2.8378,-2.8378,-2.844,-2.8442,-2.8444,0,0,0,0,0,0,0,0,0,0,0,0,0,-2.8198,-2.82,-2.8311,-2.8312,-2.8313,-2.8373,-2.8374,-2.8375,-2.838,-2.8379,-2.8378,-2.8377,-2.8439,-2.8441,-2.8444,0,0,0,0,0,0,0,0,0,0,0,0,0,-2.8252,-2.82,-2.8311,-2.8323,-2.8324,-2.8373,-2.8374,-2.8375,-2.838,-2.8379,-2.8378,-2.8377,-2.8438,-2.8441,-2.8445,-2.8486,0,0,-2.8455,-2.8456,0,0,0,0,0,0,0,0,-2.8249,-2.8256,-2.832,-2.8322,-2.8324,-2.8368,-2.8357,-2.8412,-2.838,-2.8359,-2.8378,-2.8377,-2.8416,-2.8422,-2.8435,-2.8489,-2.8491,-2.8455,-2.8457,-2.8459,-2.846,0,0,0,0,0,0,0,-2.8245,-2.8254,-2.8336,-2.8321,-2.8323,-2.8325,-2.8331,-2.8367,-2.8392,-2.8361,-2.8361,-2.8368,-2.8417,-2.8432,-2.8437,-2.8492,-2.8455,-2.8458,-2.846,-2.8462,-2.8586,-2.8587,0,0,0,0,0,0,-2.8239,-2.825,-2.8334,-2.8338,-2.8283,-2.8328,-2.8335,-2.8355,-2.8392,-2.8397,-2.8369,-2.8368,-2.8427,-2.8433,-2.8439,-2.8492,-2.8459,-2.8462,-2.8464,-2.8584,-2.8586,-2.8587,0,0,0,0,0,0,-2.8237,-2.8247,-2.8331,-2.8294,-2.8305,-2.8331,-2.8353,-2.8356,-2.8371,-2.8399,-2.8403,-2.838,-2.8426,-2.8434,-2.8475,-2.8494,-2.8464,-2.8467,-2.8583,-2.8585,-2.8587,-2.8597,0,0,0,0,0,0,-2.8234,-2.8246,-2.8261,-2.8295,-2.8307,-2.8366,-2.8354,-2.8358,-2.8377,-2.8377,-2.841,-2.8414,-2.8426,-2.847,-2.8478,-2.8498,-2.8469,-2.8581,-2.8584,-2.8586,-2.8595,-2.8599,-2.8602,0,0,0,0,0,-2.8229,-2.8261,-2.8262,-2.8272,-2.8327,-2.8367,-2.8375,-2.8388,-2.8379,-2.8395,-2.8413,-2.8413,-2.849,-2.8474,-2.8484,-2.8505,-2.858,-2.8583,-2.8586,-2.8593,-2.8598,-2.8602,0,0,0,0,0,0,-2.8228,-2.8265,-2.8267,-2.831,-2.8336,-2.8368,-2.8389,-2.8392,-2.842,-2.8418,-2.8433,-2.8441,-2.8482,-2.8497,-2.8478,-2.8548,-2.8534,-2.8539,-2.8537,-2.8541,-2.8545,-2.8541,-2.8472,0,0,0,0,0,-2.8233,-2.8262,-2.8293,-2.8328,-2.8341,-2.8363,-2.8381,-2.8389,-2.8416,-2.8426,-2.8447,-2.8473,-2.8504,-2.8523,-2.8552,-2.8597,-2.8605,-2.8616,-2.862,-2.8623,-2.8627,-2.8655,-2.8661,-2.8597,-2.8596,-2.8596,0,0,-2.8243,-2.8267,-2.8284,-2.8329,-2.8349,-2.838,-2.8372,-2.8404,-2.8427,-2.8431,-2.8472,-2.8488,-2.8518,-2.8562,-2.8582,-2.8576,-2.8647,-2.8626,-2.8628,-2.8631,-2.8658,-2.8664,-2.8669,-2.8598,-2.8598,-2.8598,0,0,-2.8277,-2.8297,-2.833,-2.8352,-2.8384,-2.8399,-2.8407,-2.8439,-2.8451,-2.8492,-2.8496,-2.8524,-2.8575,-2.8597,-2.8615,-2.8661,-2.8663,-2.867,-2.8689,-2.8716,-2.8721,-2.8725,-2.8744,-2.875,-2.8674,-2.8674,-2.8674,0,-2.8285,-2.8332,-2.8346,-2.838,-2.84,-2.8406,-2.844,-2.846,-2.85,-2.8514,-2.8506,-2.8573,-2.8593,-2.8644,-2.8655,-2.8669,-2.8679,-2.8666,-2.8719,-2.8723,-2.8728,-2.8746,-2.8752,-2.8675,-2.8675,-2.8674,-2.8674,0,-2.8342,-2.8374,-2.8397,-2.8437,-2.8459,-2.8493,-2.8513,-2.8534,-2.8541,-2.8557,-2.86,-2.8625,-2.8661,-2.8673,-2.8679,-2.8725,-2.872,-2.8716,-2.8702,-2.8735,-2.8752,-2.8758,-2.8676,-2.8676,-2.8675,-2.8675,0,0,-2.8375,-2.8425,-2.8433,-2.8453,-2.849,-2.8515,-2.855,-2.8586,-2.8605,-2.8632,-2.8662,-2.8707,-2.8704,-2.8724,-2.8733,-2.8756,-2.8794,-2.8749,-2.875,-2.8759,-2.8849,-2.8853,-2.8861,-2.8795,-2.8796,-2.8798,-2.8847,0,-2.8415,-2.8478,-2.8493,-2.8546,-2.8577,-2.8585,-2.8615,-2.8642,-2.8658,-2.8687,-2.8704,-2.8737,-2.8729,-2.8742,-2.8765,-2.8784,-2.8813,-2.8781,-2.8825,-2.8826,-2.8818,-2.8869,-2.8873,-2.8919,-2.8853,-2.8854,-2.8855,0,-2.847,-2.8501,-2.8558,-2.8594,-2.8607,-2.8634,-2.867,-2.8697,-2.8728,-2.8738,-2.8763,-2.877,-2.8807,-2.8792,-2.8844,-2.8822,-2.8841,-2.8853,-2.8855,-2.8861,-2.8843,-2.8878,-2.8933,-2.8941,-2.8865,-2.8865,-2.8864,0,-2.8492,-2.8547,-2.8589,-2.8605,-2.8647,-2.8667,-2.8685,-2.8715,-2.8737,-2.8768,-2.8782,-2.8817,-2.8836,-2.8863,-2.888,-2.8866,-2.8932,-2.8917,-2.8942,-2.8942,-2.8956,-2.8955,-2.9017,-2.8966,-2.8965,-2.8965,-2.8965,0,-2.8536,-2.8571,-2.86,-2.8626,-2.8666,-2.8684,-2.8723,-2.8741,-2.8768,-2.8798,-2.8806,-2.8834,-2.8854,-2.8886,-2.8899,-2.8942,-2.895,-2.896,-2.8963,-2.896,-2.8959,-2.8974,-2.8972,-2.8967,-2.8967,-2.8966,-2.8966,0,-2.8567,-2.8588,-2.8635,-2.8671,-2.8682,-2.871,-2.8741,-2.8767,-2.8784,-2.8823,-2.8833,-2.8859,-2.8897,-2.8917,-2.8963,-2.8972,-2.9021,-2.9021,-2.9011,-2.9012,-2.9038,-2.9036,-2.9112,-2.9124,-2.9063,-2.9063,-2.9064,0,-2.8594,-2.8622,-2.8662,-2.8684,-2.8703,-2.8737,-2.876,-2.8778,-2.8802,-2.8841,-2.8862,-2.8901,-2.8932,-2.8992,-2.9016,-2.9052,-2.9054,-2.9079,-2.906,-2.9057,-2.9057,-2.9056,-2.906,-2.9082,-2.9083,-2.9083,-2.9084,0,-2.8641,-2.8651,-2.8684,-2.8721,-2.8749,-2.8779,-2.8808,-2.8825,-2.8849,-2.8875,-2.8915,-2.8939,-2.8988,-2.9026,-2.9065,-2.9084,-2.9089,-2.909,-2.9098,-2.9096,-2.9089,-2.9095,-2.9022,-2.9088,-2.9087,-2.9087,-2.9087,-2.9087,-2.8672,-2.8698,-2.8732,-2.8769,-2.8794,-2.8822,-2.8849,-2.8871,-2.8904,-2.8946,-2.8955,-2.8997,-2.9029,-2.9082,-2.9102,-2.9136,-2.9131,-2.9142,-2.9145,-2.9148,-2.9151,-2.9083,-2.9142,-2.9142,-2.9142,-2.9142,-2.9142,0,-2.8722,-2.8744,-2.8778,-2.8821,-2.8851,-2.8853,-2.8887,-2.8911,-2.8949,-2.8979,-2.9011,-2.9057,-2.9095,-2.9123,-2.9162,-2.9183,-2.9187,-2.9193,-2.9193,-2.9197,-2.9151,-2.9142,-2.919,-2.919,-2.919,-2.919,-2.919,-2.919,-2.8751,-2.8796,-2.881,-2.8868,-2.889,-2.8932,-2.8952,-2.8978,-2.9003,-2.9055,-2.9087,-2.9105,-2.9135,-2.9177,-2.9212,-2.9219,-2.9234,-2.9241,-2.9248,-2.9205,-2.92,-2.9195,-2.9186,-2.9243,-2.9244,-2.9292,-2.9292,-2.9293]}]]